User: anonymous   Login
Location: Vancouver
(49.2500°N, 123.1330°W)
Time: 15:13:43
(UTC-08:00)
Language:

CZ-2C R/B - Orbit

View from above orbital plane
View from above orbital plane
View from above satellite
View from above satellite

Ground track
Ground track

The orbit data is extracted from the following two-line orbital elements,

1 28480U 04046B   16038.95022723 +.00000107 +00000-0 +56566-4 0  9994
2 28480 098.1667 161.5756 0141092 246.0876 221.4292 14.25567009583650
Epoch (UTC): 07 February 2016 22:48:19
Eccentricity: 0.0141092
inclination: 98.1667°
perigee height: 705 km
apogee height: 908 km
right ascension of ascending node: 161.5756°
argument of perigee: 246.0876°
revolutions per day: 14.25567009
mean anomaly at epoch: 221.4292°
orbit number at epoch: 58365

The dashed part of the orbit path shows where the satellite is in the earth's shadow,  

DLR